Volver al catálogo

STARLINK-31168

ActivoComunicacionesVLEO
NORAD 58798·PAYLOAD·🇺🇸 United States

Lanzado Jan 15, 2024 desde Cape Canaveral Space Force Station

Loading…

Próximos Pases (próximas 24 horas)

TLE

ActualizadoSource: CelesTrak SupGP

Época: Sep 15, 2026, 02:12 UTC

1 58798C 24012M   26258.09215278 -.00034011  00000+0 -12321-2 0  2582
2 58798  43.0027 175.5754 0001315 272.5947  61.6543 15.27590298    19

Sigue STARLINK-31168 en tiempo real con AllMySat

Download on the App Store